Tracking 19706 objects as of 16-Jun-2019
HD Live streaming from Space Station
objects crossing your sky now

MICROSAT-R DEB

Track MICROSAT-R DEB now!
10-day predictions


NORAD ID: 44179
Int'l Code: 2019-006BS
Perigee: 277.8 km
Apogee: 528.4 km
Inclination: 96.1 °
Period: 92.5 minutes
Semi major axis: 6774 km
RCS: Unknown
Launch date: January 24, 2019
Source: India (IND)
Launch site: SRIHARIKOTA (SRI)

Note: This is SATELLITE DEBRIS
aabbcc
Your satellite tracking list
Your tracking list is empty




NASA's NSSDC Master Catalog

Two Line Element Set (TLE):
1 44179U 19006BS  19166.79611471 +.00066379 +24750-5 +40865-3 0  9990
2 44179 096.1368 068.4540 0184943 088.1685 274.0744 15.57130817011426
Source of the keplerian elements: AFSPC